GFSNW_prec_snow_213.txt.gz
Snowfall_Accumulation
0.0 0.0 0.0 0.0 0.0 0.0 0.0 0.0 17.6 0.0 0.0 12.2 10.4 5.8 0.3 0.0 0.2 0.0 1.6 2.4 4.8 7.2 5.2 5.3 6.0 3.0 3.4 0.0 0.0 0.0 0.0 7.7 6.7 1.5 0.0 0.0 0.0 0.1 0.2 11.2 6.7 8.5 18.1 19.4
0.0 0.0 0.0 0.0 0.0 0.0 0.0 5.0 3.9 0.0 0.0 14.6 9.6 2.1 0.1 0.0 0.0 0.0 2.6 2.9 4.7 6.3 8.1 10.1 11.0 3.6 0.0 0.0 0.0 0.1 0.0 6.6 3.6 3.4 0.0 0.0 0.4 0.0 0.0 1.3 4.4 12.7 20.0 16.3
0.0 0.0 0.0 0.0 0.0 0.0 0.0 9.7 30.8 0.0 0.0 2.3 3.2 5.6 5.0 3.1 0.0 0.0 0.5 3.1 5.7 6.3 7.6 6.9 9.5 3.5 0.0 0.0 0.0 0.0 0.0 2.7 4.5 7.8 8.2 4.5 3.1 1.2 0.0 5.4 16.9 12.0 14.2 10.3
0.0 0.0 0.0 0.0 0.0 0.0 0.0 15.5 23.2 0.3 25.2 13.5 5.5 2.2 5.5 3.3 3.0 0.2 1.0 8.2 3.9 5.5 11.8 7.7 6.2 4.6 0.2 0.0 0.0 0.0 0.2 4.7 6.6 3.7 4.9 3.2 6.4 6.2 7.6 7.3 4.8 11.2 10.9 4.9
0.0 0.0 0.0 0.0 0.0 0.0 0.0 45.4 12.5 1.5 5.3 1.2 10.6 10.5 7.8 2.7 2.1 6.6 6.2 3.1 0.7 1.8 5.4 3.7 5.2 4.2 3.2 3.7 0.0 0.1 0.1 3.5 7.8 14.1 6.5 2.6 9.1 9.6 7.0 3.7 3.6 4.4 2.3 4.5
0.0 0.0 0.0 0.0 0.0 0.0 8.2 0.0 0.0 5.0 11.4 7.0 12.5 11.1 5.4 3.7 2.6 0.6 0.5 1.1 3.7 2.3 1.1 0.0 0.0 0.0 0.5 0.0 1.8 1.9 2.7 4.7 5.7 9.9 4.3 2.5 6.3 7.9 4.7 2.4 1.8 2.1 1.9 2.8
0.0 0.0 0.0 0.0 0.0 0.0 0.0 0.0 0.0 16.5 18.0 6.9 3.5 2.8 0.5 2.9 0.9 4.0 0.0 0.0 3.9 0.0 0.0 0.0 0.0 0.3 0.0 0.0 0.0 0.0 1.1 3.4 7.3 9.4 4.7 13.1 8.5 3.5 2.9 2.2 1.6 0.9 1.3 1.9
0.0 0.0 0.0 0.0 0.0 0.0 0.0 0.0 0.0 9.6 12.8 2.4 1.5 0.7 0.5 0.2 0.0 4.9 0.3 0.0 0.0 0.0 0.0 7.9 4.4 0.6 0.3 0.0 0.0 0.0 0.2 3.1 11.8 9.9 4.6 3.5 1.9 1.2 2.2 2.3 2.1 2.2 3.6 1.5
0.0 0.0 0.0 0.0 0.0 0.0 0.0 0.0 0.0 4.8 13.6 4.0 0.0 1.9 0.6 4.4 5.2 3.6 0.5 0.0 0.0 0.0 7.7 9.4 6.8 2.4 1.6 1.1 0.9 0.4 1.0 1.2 12.0 10.9 10.6 5.8 0.7 0.2 0.2 0.0 2.2 3.2 5.4 5.0
0.0 0.0 0.0 0.0 0.0 0.0 0.0 0.0 0.0 0.1 18.3 1.0 0.0 2.3 3.1 1.0 2.1 5.3 0.7 0.7 0.0 0.0 9.1 10.5 5.0 3.1 2.3 3.9 3.1 1.2 3.8 6.4 14.4 12.3 16.1 2.9 0.4 1.0 0.9 5.7 7.0 5.3 4.3 4.6
0.0 0.0 0.0 0.0 0.0 0.0 0.0 0.0 0.0 0.0 14.6 0.1 0.0 0.0 1.0 1.8 2.8 7.9 1.8 7.2 6.8 8.0 12.7 8.7 6.6 3.5 2.1 2.5 0.3 2.0 2.3 7.9 6.3 9.3 15.0 8.3 1.3 2.1 4.7 6.5 5.8 3.1 2.5 1.7
0.0 0.0 0.0 0.0 0.0 0.0 0.0 0.0 0.0 0.0 3.4 1.4 0.0 0.0 0.0 0.0 0.0 2.6 3.8 3.4 1.3 5.3 9.4 8.7 7.6 5.2 4.6 2.3 5.6 0.8 6.2 4.9 7.5 5.6 5.0 3.0 2.6 4.8 4.1 4.3 6.3 3.4 1.8 1.2
0.0 0.0 0.0 0.0 0.0 0.0 0.0 0.0 0.0 0.0 10.9 0.8 0.0 0.0 0.0 0.0 0.0 0.0 3.7 0.0 2.3 4.4 0.3 7.9 6.7 7.0 0.9 4.5 2.7 4.5 3.7 0.0 5.6 4.0 5.6 4.8 3.7 1.1 1.9 3.1 3.5 1.0 1.1 1.1
0.0 0.0 0.0 0.0 0.0 0.0 0.0 0.0 0.0 0.0 3.0 14.1 2.1 0.0 0.0 0.0 0.0 0.0 0.0 0.0 0.0 0.0 0.0 5.0 4.9 5.5 0.1 4.6 6.3 4.8 4.7 5.6 9.5 11.5 7.5 4.3 1.4 2.8 2.7 1.3 0.9 0.3 1.5 2.5
0.0 0.0 0.0 0.0 0.0 0.0 0.0 0.0 0.0 0.0 2.5 11.6 4.0 0.0 0.0 0.0 0.0 0.0 0.0 0.0 0.0 0.5 5.1 7.4 5.0 0.5 1.8 0.2 3.0 2.6 1.3 5.3 13.4 16.1 10.3 9.1 5.1 2.8 1.8 2.3 2.2 1.2 0.5 0.0
0.0 0.0 0.0 0.0 0.0 0.0 0.0 37.9 0.0 0.0 0.0 13.1 8.1 0.0 0.0 0.0 0.0 0.0 0.0 0.0 0.0 0.4 4.3 4.6 0.1 0.0 2.6 9.8 7.3 2.5 1.4 1.4 3.3 7.9 8.7 8.7 5.3 3.5 2.3 1.5 0.7 0.0 0.0 0.0
0.0 0.0 0.0 0.0 0.0 0.0 1.8 10.9 0.0 0.0 0.0 16.2 12.3 2.1 0.0 0.0 0.0 2.2 0.0 1.9 0.9 0.4 2.9 3.1 1.1 0.5 3.4 10.6 8.0 3.8 2.8 3.1 4.0 4.6 5.9 4.7 1.7 1.7 0.5 0.0 0.0 0.0 0.0 0.0
0.0 0.0 0.0 0.0 0.0 0.0 1.1 0.0 0.0 0.0 0.0 3.5 10.8 7.7 4.0 0.0 2.5 8.3 3.3 4.4 3.2 6.3 3.7 3.7 1.1 1.9 2.2 8.2 0.4 0.0 0.4 1.0 2.5 1.6 0.4 1.5 0.6 0.0 0.0 0.0 0.0 0.0 0.0 0.3
0.0 0.0 0.0 0.0 0.0 3.2 0.0 0.0 0.0 0.0 2.6 12.2 4.9 7.1 14.8 0.0 0.8 4.1 9.2 7.3 15.4 0.4 6.4 2.0 3.4 6.7 10.2 4.4 0.6 0.2 0.7 1.3 0.9 0.0 0.2 0.0 0.2 0.0 0.0 0.0 0.0 0.4 2.7 1.8
0.0 0.0 7.6 49.2 3.0 0.0 0.0 0.0 12.9 19.0 7.5 4.2 4.7 1.2 6.2 0.9 5.3 10.5 10.3 9.3 12.0 11.2 3.9 0.4 6.7 6.7 4.5 1.3 0.3 1.0 1.1 0.6 0.0 0.0 0.0 0.0 0.3 0.5 0.3 1.3 1.9 2.8 2.6 1.1
0.0 18.8 25.9 0.0 0.0 0.0 8.2 30.7 21.0 12.3 9.0 1.5 0.9 0.4 9.6 4.5 11.3 8.1 3.2 11.3 9.5 12.3 10.2 9.2 9.9 10.6 13.0 2.9 1.2 0.2 0.0 0.0 0.0 0.0 0.1 0.2 0.5 1.4 3.0 2.0 0.2 0.1 0.8 1.0
0.0 0.0 0.0 0.0 13.5 17.8 24.2 18.4 10.7 4.3 4.1 1.4 1.6 2.0 3.2 11.1 3.1 12.6 12.3 12.6 12.1 9.5 7.2 11.7 11.2 9.2 1.7 0.4 0.8 0.5 0.4 0.2 0.1 0.3 0.4 0.4 1.3 0.6 1.5 1.3 1.4 1.5 1.5 2.0
0.0 10.6 16.3 21.6 26.3 28.3 18.3 12.2 7.9 6.0 5.1 3.3 4.4 5.8 4.5 7.1 7.8 17.2 9.8 10.3 14.0 5.4 16.1 10.6 9.5 7.2 4.4 4.1 5.2 2.1 1.4 0.2 0.2 0.4 0.3 0.4 0.8 0.8 0.8 1.1 1.4 1.6 2.8 3.9
11.5 23.6 23.5 24.4 20.9 13.3 12.5 7.1 6.2 6.1 4.7 2.7 4.2 3.1 4.2 3.4 11.2 15.3 15.5 15.2 12.7 16.4 9.6 12.4 12.6 9.4 7.7 4.8 3.7 2.5 3.4 2.3 2.3 2.5 2.4 2.6 3.9 3.8 5.4 6.2 7.2 6.7 8.7 11.2
15.7 15.1 15.6 13.1 12.5 10.6 8.9 6.5 4.5 2.6 3.0 2.6 4.2 5.5 6.3 11.7 14.2 10.9 8.7 9.3 8.8 7.3 11.0 13.5 9.4 7.5 6.7 5.7 5.1 5.4 5.8 5.5 5.9 6.2 6.2 7.1 7.3 6.6 8.4 9.4 9.4 7.8 7.9 7.9
7.6 6.9 9.7 8.4 6.7 8.3 6.6 6.5 7.4 4.1 5.8 5.1 10.2 14.5 13.8 13.0 7.7 5.3 5.6 5.2 8.1 12.3 10.8 6.3 5.6 6.2 5.8 6.1 6.2 7.0 7.1 6.5 6.2 6.3 5.8 6.0 6.2 5.6 6.3 6.7 7.1 6.6 5.4 5.4
5.4 9.1 8.8 8.5 7.3 8.7 8.6 7.2 5.7 3.8 5.3 12.1 12.1 8.5 7.5 6.8 6.7 7.3 9.2 13.7 15.7 9.6 8.5 8.2 6.6 6.7 7.6 7.7 7.9 8.2 7.8 6.7 6.3 6.0 5.8 6.0 5.9 4.4 2.9 3.9 5.6 4.4 4.2 3.8

GFSNW_prec_snow_216.txt.gz
Snowfall_Accumulation
0.0 0.0 0.0 0.0 0.0 0.0 0.0 0.0 17.6 0.0 0.0 12.2 10.4 5.8 0.3 0.0 0.2 0.0 1.6 2.4 4.8 7.2 5.2 5.3 6.0 3.0 3.4 0.0 0.0 0.0 0.0 7.7 6.8 1.5 0.0 0.0 0.0 0.1 0.2 12.4 7.2 8.8 18.7 19.6
0.0 0.0 0.0 0.0 0.0 0.0 0.0 5.0 3.9 0.0 0.0 14.6 9.6 2.1 0.1 0.0 0.0 0.0 2.6 2.9 4.7 6.3 8.1 10.1 11.0 3.6 0.0 0.0 0.0 0.1 0.0 6.6 3.7 3.4 0.0 0.0 0.4 0.0 0.0 1.6 4.9 13.1 20.6 16.5
0.0 0.0 0.0 0.0 0.0 0.0 0.0 9.7 30.8 0.0 0.0 2.3 3.2 5.6 5.0 3.1 0.0 0.0 0.5 3.1 5.7 6.3 7.6 6.9 9.5 3.5 0.0 0.0 0.0 0.0 0.0 2.7 4.6 7.8 8.2 4.5 3.1 1.2 0.3 6.0 17.7 12.5 14.6 10.3
0.0 0.0 0.0 0.0 0.0 0.0 0.0 15.5 23.2 0.3 25.2 13.5 5.5 2.2 5.5 3.3 3.0 0.2 1.0 8.2 3.9 5.5 11.8 7.7 6.2 4.6 0.2 0.0 0.0 0.0 0.2 5.1 6.7 3.7 4.9 3.2 6.4 6.6 8.0 8.2 5.5 12.5 11.3 4.9
0.0 0.0 0.0 0.0 0.0 0.0 0.0 45.4 12.5 1.5 5.3 1.2 10.6 10.5 7.8 2.7 2.1 6.6 6.2 3.1 0.7 1.8 5.4 3.7 5.2 4.2 3.2 3.7 0.0 0.1 0.3 4.0 7.8 14.1 6.5 2.6 9.1 9.6 7.0 3.7 3.6 4.4 2.3 4.5
0.0 0.0 0.0 0.0 0.0 0.0 8.2 0.0 0.0 5.0 11.4 7.0 12.5 11.1 5.4 3.7 2.6 0.6 0.5 1.1 3.7 2.3 1.1 0.0 0.0 0.0 0.5 0.0 1.9 2.1 3.0 4.7 5.8 10.0 4.3 2.5 6.3 7.9 4.7 2.4 1.8 2.1 1.9 2.8
0.0 0.0 0.0 0.0 0.0 0.0 0.0 0.0 0.0 16.5 18.0 6.9 3.5 2.8 0.5 2.9 0.9 4.0 0.0 0.0 3.9 0.0 0.0 0.0 0.0 0.3 0.0 0.0 0.0 0.0 1.3 3.8 7.8 9.6 4.7 13.1 8.5 3.5 2.9 2.2 1.6 0.9 1.3 1.9
0.0 0.0 0.0 0.0 0.0 0.0 0.0 0.0 0.0 9.6 12.8 2.4 1.5 0.7 0.5 0.2 0.0 4.9 0.3 0.0 0.0 0.0 0.0 7.9 4.4 0.6 0.3 0.0 0.0 0.1 0.4 3.3 12.0 10.0 4.6 3.5 1.9 1.2 2.2 2.3 2.1 2.2 3.6 1.5
0.0 0.0 0.0 0.0 0.0 0.0 0.0 0.0 0.0 4.8 13.6 4.0 0.0 1.9 0.6 4.4 5.2 5.0 1.7 0.0 0.0 0.0 7.7 9.4 6.8 2.4 1.6 1.1 0.9 0.4 1.0 1.2 12.0 10.9 10.6 5.8 0.7 0.2 0.2 0.0 2.2 3.2 5.4 5.0
0.0 0.0 0.0 0.0 0.0 0.0 0.0 0.0 0.0 0.1 18.3 1.0 0.0 2.3 3.1 1.0 3.8 6.5 1.4 1.2 0.2 0.0 9.1 10.5 5.0 3.1 2.3 3.9 3.1 1.2 3.8 6.4 14.4 12.3 16.1 2.9 0.4 1.0 0.9 5.7 7.0 5.3 4.3 4.6
0.0 0.0 0.0 0.0 0.0 0.0 0.0 0.0 0.0 0.0 14.6 0.1 0.0 0.0 1.0 1.8 3.3 8.2 2.0 7.3 6.8 8.0 12.7 8.7 6.6 3.5 2.1 2.5 0.3 2.0 2.3 7.9 6.3 9.3 15.0 8.3 1.3 2.1 4.7 6.5 5.8 3.1 2.5 1.7
0.0 0.0 0.0 0.0 0.0 0.0 0.0 0.0 0.0 0.0 3.4 1.4 0.0 0.0 0.0 0.0 0.0 2.6 3.8 3.4 1.3 5.3 9.4 8.7 7.6 5.2 4.6 2.3 5.6 0.8 6.2 4.9 7.5 5.6 5.0 3.0 2.6 4.8 4.1 4.3 6.3 3.4 1.8 1.2
0.0 0.0 0.0 0.0 0.0 0.0 0.0 0.0 0.0 0.0 10.9 1.7 0.0 0.1 0.0 0.0 0.0 0.0 3.7 0.0 2.3 4.4 0.3 7.9 6.7 7.0 0.9 4.5 2.7 4.5 3.7 0.0 5.6 4.0 5.6 4.8 3.7 1.1 1.9 3.1 3.5 1.0 1.1 1.1
0.0 0.0 0.0 0.0 0.0 0.0 0.0 0.0 0.0 0.0 3.0 14.6 2.2 0.0 0.0 0.0 0.0 0.0 0.0 0.0 0.0 0.0 0.0 5.0 4.9 5.5 0.1 4.6 6.3 4.8 4.7 5.6 9.5 11.5 7.5 4.3 1.4 2.8 2.7 1.3 0.9 0.3 1.5 2.5
0.0 0.0 0.0 0.0 0.0 0.0 0.0 0.0 0.0 0.0 2.5 11.7 4.0 0.0 0.0 0.0 0.0 0.0 0.0 0.0 0.0 0.5 5.1 7.4 5.0 0.5 1.8 0.2 3.0 2.6 1.3 5.3 13.4 16.1 10.3 9.1 5.1 2.8 1.8 2.3 2.2 1.2 0.5 0.0
0.0 0.0 0.0 0.0 0.0 0.0 0.0 37.9 0.0 0.0 0.0 13.1 8.1 0.0 0.0 0.0 0.0 0.0 0.0 0.0 0.0 0.4 4.3 4.6 0.1 0.0 2.6 9.8 7.3 2.5 1.4 1.4 3.3 7.9 8.7 8.7 5.3 3.5 2.3 1.5 0.7 0.0 0.0 0.0
0.0 0.0 0.0 0.0 0.0 0.0 1.8 10.9 0.0 0.0 0.0 16.2 12.3 2.1 0.0 0.0 0.0 2.2 0.0 1.9 0.9 0.4 2.9 3.1 1.1 0.5 3.4 10.6 8.0 3.8 2.8 3.1 4.0 4.6 5.9 4.7 1.7 1.7 0.5 0.0 0.0 0.0 0.0 0.0
0.0 0.0 0.0 0.0 0.0 0.0 1.1 0.0 0.0 0.0 0.0 3.5 10.8 7.7 4.0 0.0 2.5 8.3 3.3 4.4 3.2 6.3 3.7 3.7 1.1 1.9 2.2 8.2 0.4 0.0 0.4 1.0 2.5 1.6 0.4 1.5 0.6 0.0 0.0 0.0 0.0 0.0 0.0 0.3
0.0 0.0 0.0 0.0 0.0 3.2 0.0 0.0 0.0 0.0 2.6 12.2 4.9 7.1 14.8 0.0 0.8 4.1 9.2 7.3 15.4 0.4 6.4 2.0 3.4 6.7 10.2 4.4 0.6 0.2 0.7 1.3 0.9 0.0 0.2 0.0 0.2 0.0 0.0 0.0 0.0 0.4 2.7 1.8
0.0 0.0 7.6 49.2 3.0 0.0 0.0 0.0 12.9 19.0 7.5 4.2 4.7 1.2 6.2 0.9 5.3 10.5 10.3 9.3 12.0 11.2 3.9 0.4 6.7 6.7 4.5 1.3 0.3 1.0 1.1 0.6 0.0 0.0 0.0 0.0 0.3 0.5 0.3 1.3 1.9 2.8 2.6 1.1
0.0 18.8 25.9 0.0 0.0 0.0 8.2 30.7 21.0 12.3 9.0 1.5 0.9 0.4 9.6 4.5 11.3 8.1 3.2 11.3 9.5 12.3 10.2 9.2 9.9 10.6 13.0 2.9 1.2 0.2 0.0 0.0 0.0 0.0 0.1 0.2 0.5 1.4 3.0 2.0 0.2 0.1 0.8 1.0
0.0 0.0 0.0 0.0 13.5 17.8 24.2 18.4 10.7 4.3 4.1 1.4 1.6 2.0 3.2 11.1 3.1 12.6 12.3 12.6 12.1 9.5 7.2 11.7 11.2 9.2 1.7 0.4 0.8 0.5 0.4 0.2 0.1 0.3 0.4 0.4 1.3 0.6 1.5 1.3 1.5 1.7 1.6 2.1
0.0 10.6 16.3 21.6 26.3 28.3 18.3 12.2 7.9 6.0 5.1 3.3 4.4 5.8 4.5 7.1 7.8 17.2 9.8 10.3 14.0 5.4 16.1 10.6 9.5 7.2 4.4 4.1 5.2 2.1 1.4 0.2 0.2 0.4 0.3 0.4 0.9 1.1 1.5 1.8 2.0 2.0 3.0 4.0
11.5 23.6 23.5 24.4 20.9 13.3 12.5 7.1 6.2 6.1 4.7 2.7 4.2 3.1 4.2 3.4 11.2 15.3 15.5 15.2 12.7 16.4 9.7 12.4 12.6 9.4 7.7 4.8 3.7 2.7 3.5 2.3 2.3 2.5 2.4 2.8 3.9 3.8 5.4 6.2 7.2 6.7 8.7 11.2
15.7 15.1 15.6 13.1 12.5 10.6 8.9 6.5 4.5 2.6 3.0 2.6 4.2 5.5 6.3 11.7 14.2 10.9 8.7 9.3 8.8 7.3 11.0 13.5 9.4 7.5 6.7 5.7 5.1 5.4 5.8 5.5 5.9 6.2 6.2 7.1 7.3 6.6 8.4 9.4 9.4 7.8 7.9 7.9
7.6 6.9 9.7 8.4 6.7 8.3 6.6 6.5 7.4 4.1 5.8 5.1 10.2 14.5 13.8 13.0 7.7 5.3 5.6 5.2 8.1 12.3 10.8 6.3 5.6 6.2 5.8 6.2 6.3 7.1 7.2 6.6 6.3 6.3 5.8 6.0 6.3 5.6 6.3 6.7 7.1 6.6 5.4 5.4
5.4 9.1 8.8 8.5 7.3 8.7 8.6 7.2 5.7 3.8 5.3 12.1 12.1 8.5 7.5 6.8 6.7 7.3 9.2 13.7 15.7 9.6 8.5 8.2 6.6 6.7 7.8 7.8 8.0 8.2 7.9 6.9 6.5 6.1 5.8 6.0 5.9 4.4 2.9 4.0 5.7 4.4 4.3 4.0

GFSNW_prec_snow_219.txt.gz
Snowfall_Accumulation
0.0 0.0 0.0 0.0 0.0 0.0 0.0 0.0 17.6 0.0 0.0 12.2 10.4 5.8 0.3 0.0 0.2 0.0 1.6 2.4 4.8 7.2 5.2 5.3 6.0 3.0 3.4 0.0 0.0 0.0 0.0 7.7 6.8 1.5 0.0 0.0 0.0 0.1 0.2 13.1 7.2 9.2 18.7 19.6
0.0 0.0 0.0 0.0 0.0 0.0 0.0 5.0 3.9 0.0 0.0 14.6 9.6 2.1 0.1 0.0 0.0 0.0 2.6 2.9 4.7 6.3 8.1 10.1 11.0 3.6 0.0 0.0 0.0 0.1 0.0 6.6 3.7 3.4 0.0 0.0 0.4 0.0 0.0 1.9 5.6 13.6 21.0 16.5
0.0 0.0 0.0 0.0 0.0 0.0 0.0 9.7 30.8 0.0 0.0 2.3 3.2 5.6 5.0 3.1 0.0 0.0 0.5 3.1 5.7 6.3 7.6 6.9 9.5 3.5 0.0 0.0 0.0 0.0 0.0 2.7 4.7 7.8 8.2 4.5 3.1 1.2 0.3 6.0 18.3 12.5 14.7 10.3
0.0 0.0 0.0 0.0 0.0 0.0 0.0 15.5 23.2 0.3 25.2 13.5 5.5 2.2 5.5 3.3 3.0 0.2 1.0 8.2 3.9 5.5 11.8 7.7 6.2 4.6 0.2 0.0 0.0 0.0 0.2 5.5 6.7 3.7 4.9 3.2 6.4 6.8 8.3 8.5 5.5 13.0 11.3 4.9
0.0 0.0 0.0 0.0 0.0 0.0 0.0 45.4 12.5 1.5 5.3 1.2 10.6 10.5 7.8 2.7 2.1 6.6 6.2 3.1 0.7 1.8 5.4 3.7 5.2 4.2 3.2 3.7 0.0 0.1 0.3 4.4 7.8 14.1 6.5 2.6 9.1 9.6 7.0 3.7 3.6 4.4 2.3 4.5
0.0 0.0 0.0 0.0 0.0 0.0 8.2 0.0 0.0 5.0 11.4 7.0 12.5 11.1 5.4 3.7 2.6 0.6 0.5 1.1 3.7 2.3 1.1 0.0 0.0 0.0 0.5 0.0 1.9 2.4 3.4 4.9 5.8 10.0 4.3 2.5 6.3 7.9 4.7 2.4 1.8 2.1 1.9 2.8
0.0 0.0 0.0 0.0 0.0 0.0 0.0 0.0 0.0 16.5 18.0 6.9 3.5 2.8 0.5 2.9 0.9 4.0 0.0 0.0 3.9 0.0 0.0 0.0 0.0 0.3 0.0 0.0 0.0 0.0 1.7 4.0 8.0 9.7 4.7 13.1 8.5 3.5 2.9 2.2 1.6 0.9 1.3 1.9
0.0 0.0 0.0 0.0 0.0 0.0 0.0 0.0 0.0 9.6 12.8 2.4 1.5 0.7 0.5 0.2 0.0 4.9 0.3 0.0 0.0 0.0 0.0 8.5 4.7 0.6 0.3 0.0 0.1 0.3 0.4 3.6 12.1 10.0 4.6 3.5 1.9 1.2 2.2 2.3 2.1 2.2 3.6 1.5
0.0 0.0 0.0 0.0 0.0 0.0 0.0 0.0 0.0 4.8 13.6 4.0 0.0 1.9 0.6 4.4 5.2 5.0 1.7 0.0 0.0 0.0 8.2 9.8 7.1 2.4 1.6 1.1 0.9 0.4 1.0 1.3 12.0 10.9 10.6 5.8 0.7 0.2 0.2 0.0 2.2 3.2 5.4 5.0
0.0 0.0 0.0 0.0 0.0 0.0 0.0 0.0 0.0 0.1 18.3 1.0 0.0 2.3 3.1 1.0 3.8 6.5 3.2 2.8 1.4 0.4 9.4 10.7 5.1 3.1 2.3 3.9 3.1 1.2 3.8 6.4 14.4 12.3 16.1 2.9 0.4 1.0 0.9 5.7 7.0 5.3 4.3 4.6
0.0 0.0 0.0 0.0 0.0 0.0 0.0 0.0 0.0 0.0 14.6 0.1 0.0 0.0 1.0 1.8 3.3 8.2 3.3 8.1 7.3 8.1 12.7 8.7 6.6 3.5 2.1 2.5 0.3 2.0 2.3 7.9 6.3 9.3 15.0 8.3 1.3 2.1 4.7 6.5 5.8 3.1 2.5 1.7
0.0 0.0 0.0 0.0 0.0 0.0 0.0 0.0 0.0 0.0 3.4 1.4 0.0 0.0 0.0 0.0 0.0 2.6 4.3 3.6 1.3 5.3 9.4 8.7 7.6 5.2 4.6 2.3 5.6 0.8 6.2 4.9 7.5 5.6 5.0 3.0 2.6 4.8 4.1 4.3 6.3 3.4 1.8 1.2
0.0 0.0 0.0 0.0 0.0 0.0 0.0 0.0 0.0 0.0 10.9 5.5 2.5 1.6 0.0 0.0 0.0 0.0 3.8 0.0 2.3 4.4 0.3 7.9 6.7 7.0 0.9 4.5 2.7 4.5 3.7 0.0 5.6 4.0 5.6 4.8 3.7 1.1 1.9 3.1 3.5 1.0 1.1 1.1
0.0 0.0 0.0 0.0 0.0 0.0 0.0 0.0 0.0 0.0 3.0 17.9 4.3 0.0 0.0 0.0 0.0 0.0 0.0 0.0 0.0 0.0 0.0 5.0 4.9 5.5 0.1 4.6 6.3 4.8 4.7 5.6 9.5 11.5 7.5 4.3 1.4 2.8 2.7 1.3 0.9 0.3 1.5 2.5
0.0 0.0 0.0 0.0 0.0 0.0 0.0 0.0 0.0 0.0 2.5 13.6 4.7 0.2 0.0 0.0 0.0 0.0 0.0 0.0 0.0 0.5 5.1 7.4 5.0 0.5 1.8 0.2 3.0 2.6 1.3 5.3 13.4 16.1 10.3 9.1 5.1 2.8 1.8 2.3 2.2 1.2 0.5 0.0
0.0 0.0 0.0 0.0 0.0 0.0 0.0 37.9 0.0 0.0 0.0 13.3 8.3 0.1 0.0 0.0 0.0 0.0 0.0 0.0 0.0 0.4 4.3 4.6 0.1 0.0 2.6 9.8 7.3 2.5 1.4 1.4 3.3 7.9 8.7 8.7 5.3 3.5 2.3 1.5 0.7 0.0 0.0 0.0
0.0 0.0 0.0 0.0 0.0 0.0 1.8 10.9 0.0 0.0 0.0 16.3 12.3 2.1 0.0 0.0 0.0 2.2 0.0 1.9 0.9 0.4 2.9 3.1 1.1 0.5 3.4 10.6 8.0 3.8 2.8 3.1 4.0 4.6 5.9 4.7 1.7 1.7 0.5 0.0 0.0 0.0 0.0 0.0
0.0 0.0 0.0 0.0 0.0 0.0 1.1 0.0 0.0 0.0 0.0 3.5 10.8 7.7 4.0 0.0 2.5 8.3 3.3 4.4 3.2 6.3 3.7 3.7 1.1 1.9 2.2 8.2 0.4 0.0 0.4 1.0 2.5 1.6 0.4 1.5 0.6 0.0 0.0 0.0 0.0 0.0 0.0 0.3
0.0 0.0 0.0 0.0 0.0 3.2 0.0 0.0 0.0 0.0 2.6 12.2 4.9 7.1 14.8 0.0 0.8 4.1 9.2 7.3 15.4 0.4 6.4 2.0 3.4 6.7 10.2 4.4 0.6 0.2 0.7 1.3 0.9 0.0 0.2 0.0 0.2 0.0 0.0 0.0 0.0 0.4 2.7 1.8
0.0 0.0 7.6 49.2 3.0 0.0 0.0 0.0 12.9 19.0 7.5 4.2 4.7 1.2 6.2 0.9 5.3 10.5 10.3 9.3 12.0 11.2 3.9 0.4 6.7 6.7 4.5 1.3 0.3 1.0 1.1 0.6 0.0 0.0 0.0 0.0 0.3 0.5 0.3 1.3 1.9 2.8 2.6 1.1
0.0 18.8 25.9 0.0 0.0 0.0 8.2 30.7 21.0 12.3 9.0 1.5 0.9 0.4 9.6 4.5 11.3 8.1 3.2 11.3 9.5 12.3 10.2 9.2 9.9 10.6 13.0 2.9 1.2 0.2 0.0 0.0 0.0 0.0 0.1 0.2 0.5 1.4 3.0 2.0 0.2 0.1 0.8 1.0
0.0 0.0 0.0 0.0 13.5 17.8 24.2 18.4 10.7 4.3 4.1 1.4 1.6 2.0 3.2 11.1 3.1 12.6 12.3 12.6 12.1 9.5 7.2 11.8 11.2 9.2 1.7 0.4 0.8 0.5 0.4 0.2 0.1 0.3 0.4 0.4 1.3 0.6 1.6 1.5 1.8 2.0 2.0 2.6
0.0 10.6 16.3 21.6 26.3 28.3 18.3 12.2 7.9 6.0 5.1 3.3 4.4 5.8 4.5 7.1 7.8 17.2 9.8 10.3 14.0 5.4 16.2 10.6 9.5 7.2 4.4 4.1 5.2 2.1 1.4 0.2 0.3 0.5 0.3 0.4 0.9 1.1 1.5 1.8 2.4 2.3 3.0 4.1
11.5 23.6 23.5 24.4 20.9 13.3 12.5 7.1 6.2 6.1 4.7 2.7 4.2 3.1 4.2 3.4 11.2 15.3 15.5 15.2 12.7 16.4 9.7 12.4 12.6 9.4 7.7 4.8 3.7 2.7 3.5 2.3 2.4 2.6 2.5 2.8 3.9 3.8 5.4 6.2 7.2 6.7 8.7 11.2
15.7 15.1 15.6 13.1 12.5 10.6 8.9 6.5 4.5 2.6 3.0 2.6 4.2 5.5 6.3 11.7 14.2 10.9 8.7 9.3 8.8 7.3 11.0 13.5 9.4 7.5 6.7 5.7 5.1 5.6 6.2 5.9 6.3 6.5 6.3 7.2 7.3 6.6 8.4 9.4 9.4 7.8 7.9 7.9
7.6 6.9 9.7 8.4 6.7 8.3 6.6 6.5 7.4 4.1 5.8 5.1 10.2 14.5 13.8 13.0 7.7 5.3 5.6 5.2 8.1 12.3 10.8 6.3 5.6 6.2 5.8 6.2 6.6 7.4 7.4 6.8 6.5 6.3 5.8 6.0 6.3 5.6 6.3 6.7 7.1 6.6 5.5 5.4
5.4 9.1 8.8 8.5 7.3 8.7 8.6 7.2 5.7 3.8 5.3 12.1 12.1 8.5 7.5 6.8 6.7 7.3 9.2 13.7 15.7 9.6 8.5 8.2 6.6 6.7 7.8 7.8 8.0 8.2 7.9 6.9 6.5 6.1 5.8 6.0 5.9 4.4 2.9 4.0 5.8 4.4 4.5 4.1

GFSNW_prec_snow_222.txt.gz
Snowfall_Accumulation
0.0 0.0 0.0 0.0 0.0 0.0 0.0 0.0 17.6 0.0 0.0 12.2 10.4 5.8 0.3 0.0 0.2 0.0 1.6 2.4 4.8 7.2 5.2 5.3 6.0 3.0 3.4 0.0 0.0 0.0 0.0 7.7 6.8 1.5 0.0 0.0 0.0 0.1 0.2 13.3 7.2 9.2 18.8 19.6
0.0 0.0 0.0 0.0 0.0 0.0 0.0 5.0 3.9 0.0 0.0 14.6 9.6 2.1 0.1 0.0 0.0 0.0 2.6 2.9 4.7 6.3 8.1 10.1 11.0 3.6 0.0 0.0 0.0 0.1 0.0 6.6 3.7 3.4 0.0 0.0 0.4 0.0 0.0 1.9 5.6 13.6 21.5 16.5
0.0 0.0 0.0 0.0 0.0 0.0 0.0 9.7 30.8 0.0 0.0 2.3 3.2 5.6 5.0 3.1 0.0 0.0 0.5 3.1 5.7 6.3 7.6 6.9 9.5 3.5 0.0 0.0 0.0 0.0 0.0 2.7 4.7 7.9 8.2 4.5 3.3 1.2 0.3 6.0 18.7 12.6 14.8 10.3
0.0 0.0 0.0 0.0 0.0 0.0 0.0 15.5 23.2 0.3 25.2 13.5 5.5 2.2 5.5 3.3 3.0 0.2 1.0 8.2 3.9 5.5 11.8 7.7 6.2 4.6 0.2 0.0 0.0 0.0 0.2 6.1 6.7 3.7 4.9 3.2 6.4 6.8 8.5 8.7 5.5 13.3 11.3 4.9
0.0 0.0 0.0 0.0 0.0 0.0 0.0 45.4 12.5 1.5 5.3 1.2 10.6 10.5 7.8 2.7 2.1 6.6 6.2 3.1 0.7 1.8 5.4 3.7 5.2 4.2 3.2 3.7 0.0 0.1 0.3 4.9 7.8 14.1 6.5 2.6 9.1 9.6 7.0 3.7 3.6 4.4 2.3 4.5
0.0 0.0 0.0 0.0 0.0 0.0 8.2 0.0 0.0 5.0 11.4 7.0 12.5 11.1 5.4 3.7 2.6 0.6 0.5 1.1 3.7 2.3 1.1 0.0 0.0 0.0 0.5 0.0 1.9 2.4 3.4 5.1 5.9 10.1 4.3 2.5 6.3 7.9 4.7 2.4 1.8 2.1 1.9 2.8
0.0 0.0 0.0 0.0 0.0 0.0 0.0 0.0 0.0 16.5 18.0 6.9 3.5 2.8 0.5 2.9 0.9 4.0 0.0 0.0 3.9 0.0 0.0 0.0 0.0 0.3 0.0 0.0 0.0 0.0 2.4 4.4 8.4 9.9 4.7 13.1 8.5 3.5 2.9 2.2 1.6 0.9 1.3 1.9
0.0 0.0 0.0 0.0 0.0 0.0 0.0 0.0 0.0 9.6 12.8 2.4 1.5 0.7 0.5 0.2 0.0 4.9 0.3 0.0 0.0 0.0 0.0 8.5 5.7 1.0 0.5 0.1 0.1 0.8 0.4 4.0 12.5 10.2 4.6 3.5 1.9 1.2 2.2 2.3 2.1 2.2 3.6 1.5
0.0 0.0 0.0 0.0 0.0 0.0 0.0 0.0 0.0 4.8 13.6 4.0 0.0 1.9 0.6 4.4 5.2 5.0 1.7 0.0 0.0 0.0 8.2 11.1 7.9 2.7 1.6 1.1 0.9 0.5 1.2 1.5 12.3 10.9 10.6 5.8 0.7 0.2 0.2 0.0 2.2 3.2 5.4 5.0
0.0 0.0 0.0 0.0 0.0 0.0 0.0 0.0 0.0 0.1 18.3 1.0 0.0 2.3 3.1 1.0 3.8 6.5 3.2 2.8 1.4 0.4 10.4 11.4 5.4 3.1 2.3 3.9 3.1 1.2 3.8 6.5 14.5 12.3 16.1 2.9 0.4 1.0 0.9 5.7 7.0 5.3 4.3 4.6
0.0 0.0 0.0 0.0 0.0 0.0 0.0 0.0 0.0 0.0 14.6 0.1 0.0 0.0 1.0 1.8 3.3 8.2 5.2 9.8 8.9 9.0 13.2 9.0 6.6 3.5 2.1 2.5 0.3 2.0 2.3 7.9 6.3 9.3 15.0 8.3 1.3 2.1 4.7 6.5 5.8 3.1 2.5 1.7
0.0 0.0 0.0 0.0 0.0 0.0 0.0 0.0 0.0 0.0 3.4 1.4 0.0 0.0 0.0 0.0 0.0 2.6 5.9 3.6 1.3 5.3 9.6 8.8 7.6 5.2 4.6 2.3 5.6 0.8 6.2 4.9 7.5 5.6 5.0 3.0 2.6 4.8 4.1 4.3 6.3 3.4 1.8 1.2
0.0 0.0 0.0 0.0 0.0 0.0 0.0 0.0 0.0 0.0 10.9 9.4 4.7 3.5 0.0 0.0 0.0 0.0 3.8 0.3 2.3 4.4 0.3 7.9 6.7 7.0 0.9 4.5 2.7 4.5 3.7 0.0 5.6 4.0 5.6 4.8 3.7 1.1 1.9 3.1 3.5 1.0 1.1 1.1
0.0 0.0 0.0 0.0 0.0 0.0 0.0 0.0 0.0 0.0 3.0 21.1 7.4 0.0 1.4 0.0 0.0 0.0 0.0 0.0 0.0 0.0 0.0 5.0 4.9 5.5 0.1 4.6 6.3 4.8 4.7 5.6 9.5 11.5 7.5 4.3 1.4 2.8 2.7 1.3 0.9 0.3 1.5 2.5
0.0 0.0 0.0 0.0 0.0 0.0 0.0 0.0 0.0 0.0 2.5 17.2 7.4 0.2 0.0 0.0 0.0 0.0 0.0 0.0 0.0 0.5 5.1 7.4 5.0 0.5 1.8 0.2 3.0 2.6 1.3 5.3 13.4 16.1 10.3 9.1 5.1 2.8 1.8 2.3 2.2 1.2 0.5 0.0
0.0 0.0 0.0 0.0 0.0 0.0 0.0 37.9 0.0 0.0 0.0 15.7 10.2 0.9 0.2 0.0 0.0 0.0 0.0 0.0 0.0 0.4 4.3 4.6 0.1 0.0 2.6 9.8 7.3 2.5 1.4 1.4 3.3 7.9 8.7 8.7 5.3 3.5 2.3 1.5 0.7 0.0 0.0 0.0
0.0 0.0 0.0 0.0 0.0 0.0 1.8 10.9 0.0 0.0 0.0 17.7 13.3 2.5 0.1 0.0 0.0 2.2 0.0 1.9 0.9 0.4 2.9 3.1 1.1 0.5 3.4 10.6 8.0 3.8 2.8 3.1 4.0 4.6 5.9 4.7 1.7 1.7 0.5 0.0 0.0 0.0 0.0 0.0
0.0 0.0 0.0 0.0 0.0 0.0 1.1 0.0 0.0 0.0 0.0 3.5 11.2 7.9 4.0 0.0 2.5 8.3 3.3 4.4 3.2 6.3 3.7 3.7 1.1 1.9 2.2 8.2 0.4 0.0 0.4 1.0 2.5 1.6 0.4 1.5 0.6 0.0 0.0 0.0 0.0 0.0 0.0 0.3
0.0 0.0 0.0 0.0 0.0 3.9 0.0 0.0 0.0 0.0 2.6 12.3 4.9 7.1 14.8 0.0 0.8 4.1 9.2 7.3 15.4 0.4 6.4 2.0 3.4 6.7 10.2 4.4 0.6 0.2 0.7 1.3 0.9 0.0 0.2 0.0 0.2 0.0 0.0 0.0 0.0 0.5 2.7 1.8
0.0 0.0 7.6 49.7 3.0 0.0 0.0 0.0 12.9 19.0 7.5 4.2 4.7 1.2 6.2 0.9 5.3 10.5 10.3 9.3 12.0 11.2 3.9 0.4 6.7 6.7 4.5 1.3 0.3 1.0 1.1 0.6 0.0 0.0 0.0 0.0 0.3 0.5 0.3 1.3 1.9 2.8 2.6 1.1
0.0 18.8 25.9 0.0 0.0 0.0 8.2 30.7 21.0 12.3 9.0 1.5 0.9 0.4 9.6 4.5 11.3 8.1 3.2 11.3 9.5 12.3 10.2 9.2 9.9 10.6 13.0 2.9 1.2 0.2 0.0 0.0 0.0 0.0 0.1 0.2 0.5 1.5 3.1 2.0 0.2 0.1 0.8 1.1
0.0 0.0 0.0 0.0 13.5 17.8 24.2 18.4 10.7 4.3 4.1 1.4 1.6 2.0 3.2 11.1 3.1 12.6 12.3 12.6 12.1 9.5 7.2 11.8 11.2 9.2 1.7 0.4 0.8 0.5 0.4 0.2 0.1 0.3 0.4 0.5 1.4 0.7 1.7 1.5 1.9 2.0 2.0 2.9
0.0 10.6 16.3 21.6 26.3 28.3 18.3 12.2 7.9 6.0 5.1 3.3 4.4 5.8 4.5 7.1 7.8 17.2 9.8 10.3 14.0 5.4 16.2 10.6 9.5 7.2 4.4 4.1 5.2 2.1 1.4 0.2 0.3 0.7 0.7 0.9 1.3 1.4 1.6 1.8 2.4 2.3 3.0 4.1
11.5 23.6 23.5 24.4 20.9 13.3 12.5 7.1 6.2 6.1 4.7 2.7 4.2 3.1 4.2 3.4 11.2 15.3 15.5 15.2 12.7 16.4 9.7 12.4 12.6 9.4 7.7 4.8 3.7 2.7 3.6 2.3 2.9 3.1 3.1 3.3 4.2 3.9 5.5 6.3 7.2 6.8 8.8 11.3
15.7 15.1 15.6 13.1 12.5 10.6 8.9 6.5 4.5 2.6 3.0 2.6 4.2 5.5 6.3 11.7 14.2 10.9 8.7 9.3 8.8 7.3 11.0 13.5 9.4 7.5 6.7 5.7 5.2 5.6 6.2 5.9 6.3 6.7 6.4 7.3 7.3 6.6 8.4 9.4 9.4 7.8 7.9 7.9
7.6 6.9 9.7 8.4 6.7 8.4 6.6 6.5 7.4 4.1 5.8 5.1 10.2 14.5 13.8 13.0 7.7 5.3 5.6 5.2 8.1 12.3 10.8 6.3 5.6 6.2 5.8 6.3 6.6 7.4 7.4 6.8 6.5 6.3 5.8 6.0 6.3 5.6 6.3 6.7 7.2 6.6 5.6 5.5
5.4 9.1 8.8 8.5 7.3 8.7 8.6 7.2 5.7 3.8 5.3 12.1 12.1 8.5 7.5 6.8 6.7 7.3 9.2 13.7 15.7 9.6 8.5 8.2 6.6 6.7 7.8 7.8 8.0 8.2 7.9 6.9 6.5 6.1 5.8 6.0 5.9 4.4 2.9 4.0 5.8 4.4 4.5 4.1

GFSNW_prec_snow_225.txt.gz
Snowfall_Accumulation
0.0 0.0 0.0 0.0 0.0 0.0 0.0 0.0 17.6 0.0 0.0 12.2 10.4 5.8 0.3 0.0 0.2 0.0 1.6 2.4 4.8 7.2 5.2 5.3 6.0 3.0 3.4 0.0 0.0 0.0 0.0 7.7 6.8 1.5 0.0 0.0 0.0 0.1 0.2 13.3 7.2 9.2 18.8 19.6
0.0 0.0 0.0 0.0 0.0 0.0 0.0 5.0 3.9 0.0 0.0 14.6 9.6 2.1 0.1 0.0 0.0 0.0 2.6 2.9 4.7 6.3 8.1 10.1 11.0 3.6 0.0 0.0 0.0 0.1 0.0 6.6 3.7 3.4 0.0 0.0 0.4 0.0 0.0 1.9 5.6 13.6 21.7 16.5
0.0 0.0 0.0 0.0 0.0 0.0 0.0 9.7 30.8 0.0 0.0 2.3 3.2 5.6 5.0 3.1 0.0 0.0 0.5 3.1 5.7 6.3 7.6 6.9 9.5 3.5 0.0 0.0 0.0 0.0 0.0 2.7 4.7 7.9 8.2 4.5 3.3 1.2 0.3 6.0 19.3 12.6 14.8 10.3
0.0 0.0 0.0 0.0 0.0 0.0 0.0 15.5 23.2 0.3 25.2 13.5 5.5 2.2 5.5 3.3 3.0 0.2 1.0 8.2 3.9 5.5 11.8 7.7 6.2 4.6 0.2 0.0 0.0 0.0 0.2 6.1 6.7 3.7 4.9 3.2 6.4 6.8 8.5 8.7 5.5 13.7 11.3 4.9
0.0 0.0 0.0 0.0 0.0 0.0 0.0 45.4 12.5 1.5 5.3 1.2 10.6 10.5 7.8 2.7 2.1 6.6 6.2 3.1 0.7 1.8 5.4 3.7 5.2 4.2 3.2 3.7 0.0 0.1 0.3 4.9 8.1 14.2 6.5 2.6 9.1 9.6 7.0 3.7 3.6 4.4 2.3 4.5
0.0 0.0 0.0 0.0 0.0 0.0 8.2 0.0 0.0 5.0 11.4 7.0 12.5 11.1 5.4 3.7 2.6 0.6 0.5 1.1 3.7 2.3 1.1 0.0 0.0 0.0 0.5 0.0 1.9 2.4 3.4 5.7 6.3 10.3 4.3 2.5 6.3 7.9 4.7 2.4 1.8 2.1 1.9 2.8
0.0 0.0 0.0 0.0 0.0 0.0 0.0 0.0 0.0 16.5 18.0 6.9 3.5 2.8 0.5 2.9 0.9 4.0 0.0 0.0 3.9 0.0 0.0 0.0 0.0 0.3 0.0 0.0 0.0 0.0 2.4 4.9 9.0 10.2 4.8 13.2 8.5 3.5 2.9 2.2 1.6 0.9 1.3 1.9
0.0 0.0 0.0 0.0 0.0 0.0 0.0 0.0 0.0 9.6 12.8 2.4 1.5 0.7 0.5 0.2 0.0 4.9 0.3 0.0 0.0 0.0 0.0 8.5 5.7 1.0 0.5 0.1 0.1 0.8 0.4 4.5 13.2 10.6 4.7 3.5 1.9 1.2 2.2 2.3 2.1 2.2 3.6 1.5
0.0 0.0 0.0 0.0 0.0 0.0 0.0 0.0 0.0 4.8 13.6 4.0 0.0 1.9 0.6 4.4 5.2 5.0 1.7 0.0 0.0 0.0 8.2 11.1 9.7 3.5 1.6 1.2 0.9 0.6 1.4 1.8 13.0 11.5 10.8 5.8 0.7 0.2 0.2 0.0 2.2 3.2 5.4 5.0
0.0 0.0 0.0 0.0 0.0 0.0 0.0 0.0 0.0 0.1 18.3 1.0 0.0 2.3 3.1 1.0 3.8 6.5 3.2 2.8 1.4 0.4 10.4 13.1 6.5 3.7 2.3 3.9 3.1 1.2 3.9 6.8 15.1 12.7 16.5 2.9 0.4 1.0 0.9 5.7 7.0 5.3 4.3 4.6
0.0 0.0 0.0 0.0 0.0 0.0 0.0 0.0 0.0 0.0 14.6 0.1 0.0 0.0 1.0 1.8 3.3 8.2 5.2 9.8 8.9 10.7 14.8 10.5 7.3 3.7 2.2 2.5 0.3 2.0 2.3 8.0 6.4 9.4 15.3 8.4 1.3 2.1 4.7 6.5 5.8 3.1 2.5 1.7
0.0 0.0 0.0 0.0 0.0 0.0 0.0 0.0 0.0 0.0 3.4 1.4 0.0 0.0 0.0 0.0 0.0 2.6 5.9 3.6 1.3 5.3 10.8 9.6 7.6 5.3 4.6 2.3 5.7 0.8 6.2 4.9 7.5 5.6 5.0 3.0 2.6 4.8 4.1 4.3 6.3 3.4 1.8 1.2
0.0 0.0 0.0 0.0 0.0 0.0 0.0 0.0 0.0 0.0 10.9 9.4 4.7 3.5 0.0 0.0 0.0 0.0 3.8 0.3 2.3 4.4 0.3 7.9 7.1 7.2 0.9 4.6 2.7 4.5 3.7 0.0 5.6 4.0 5.6 4.8 3.7 1.1 1.9 3.1 3.5 1.0 1.1 1.1
0.0 0.0 0.0 0.0 0.0 0.0 0.0 0.0 0.0 0.0 3.0 21.1 9.4 0.0 1.4 0.0 0.0 0.0 0.0 0.0 0.0 0.0 0.0 5.4 5.0 5.5 0.1 4.6 6.3 4.8 4.7 5.6 9.5 11.5 7.5 4.3 1.4 2.8 2.7 1.3 0.9 0.3 1.5 2.5
0.0 0.0 0.0 0.0 0.0 0.0 0.0 0.0 0.0 0.0 2.5 19.6 9.5 1.8 0.0 0.0 0.0 0.0 0.0 0.0 0.0 0.5 5.2 7.4 5.0 0.5 1.8 0.2 3.0 2.6 1.3 5.3 13.4 16.1 10.3 9.1 5.1 2.8 1.8 2.3 2.2 1.2 0.5 0.0
0.0 0.0 0.0 0.0 0.0 0.0 0.0 37.9 0.0 0.0 0.0 15.7 12.2 2.7 1.3 0.0 0.0 0.0 0.0 0.0 0.0 0.4 4.3 4.6 0.1 0.0 2.6 9.8 7.3 2.5 1.4 1.4 3.3 7.9 8.7 8.7 5.3 3.5 2.3 1.5 0.7 0.0 0.0 0.0
0.0 0.0 0.0 0.0 0.0 0.0 1.8 10.9 0.0 0.0 0.0 17.7 15.2 3.7 0.7 0.0 0.0 2.2 0.0 1.9 0.9 0.4 2.9 3.1 1.1 0.5 3.4 10.6 8.0 3.8 2.8 3.1 4.0 4.6 5.9 4.7 1.7 1.7 0.5 0.0 0.0 0.0 0.0 0.0
0.0 0.0 0.0 0.0 0.0 0.0 1.1 0.0 0.0 0.0 0.0 5.7 12.7 8.9 4.3 0.0 2.6 8.3 3.3 4.4 3.2 6.3 3.7 3.7 1.1 1.9 2.2 8.2 0.4 0.0 0.4 1.0 2.5 1.6 0.4 1.5 0.6 0.0 0.0 0.0 0.0 0.0 0.0 0.3
0.0 0.0 0.0 0.0 0.0 6.0 0.0 0.0 0.0 0.0 2.6 13.2 5.2 7.4 14.9 0.0 0.8 4.1 9.2 7.3 15.4 0.4 6.4 2.0 3.4 6.7 10.2 4.4 0.6 0.2 0.7 1.3 0.9 0.0 0.2 0.0 0.2 0.0 0.0 0.0 0.0 0.5 2.7 1.8
0.0 0.0 7.6 52.6 3.0 0.0 0.0 0.0 12.9 19.0 7.5 4.2 4.7 1.2 6.2 0.9 5.3 10.5 10.3 9.3 12.0 11.2 3.9 0.4 6.7 6.7 4.5 1.3 0.3 1.0 1.1 0.6 0.0 0.0 0.0 0.0 0.3 0.5 0.3 1.3 1.9 2.8 2.7 1.2
0.0 20.9 27.5 0.0 0.0 0.0 8.2 31.0 21.2 12.4 9.1 1.5 0.9 0.4 9.6 4.5 11.3 8.1 3.2 11.3 9.5 12.3 10.2 9.2 9.9 10.6 13.0 2.9 1.2 0.2 0.0 0.0 0.0 0.0 0.1 0.2 0.6 1.6 3.4 2.4 0.5 0.4 0.9 1.2
0.0 0.0 0.0 0.0 13.6 17.9 24.3 18.4 10.7 4.3 4.1 1.4 1.6 2.0 3.2 11.1 3.1 12.6 12.3 12.6 12.1 9.5 7.2 11.8 11.2 9.2 1.7 0.4 0.8 0.5 0.4 0.2 0.1 0.3 0.4 0.5 2.0 1.6 2.4 2.1 2.3 2.3 2.1 2.9
0.0 10.9 16.4 21.6 26.3 28.3 18.3 12.2 7.9 6.0 5.1 3.3 4.4 5.8 4.5 7.1 7.8 17.2 9.8 10.3 14.0 5.4 16.2 10.6 9.5 7.2 4.4 4.1 5.2 2.1 1.4 0.2 0.3 0.7 0.7 0.9 1.3 1.4 1.6 2.1 2.4 2.3 3.1 4.1
11.9 23.7 23.5 24.4 20.9 13.3 12.5 7.1 6.2 6.1 4.7 2.7 4.2 3.1 4.2 3.4 11.2 15.3 15.5 15.2 12.7 16.4 9.7 12.4 12.7 9.4 7.7 4.8 3.7 2.7 3.6 2.3 2.9 3.2 3.1 3.3 4.2 3.9 5.5 6.3 7.2 6.8 8.8 11.3
15.8 15.1 15.6 13.1 12.6 10.6 8.9 6.5 4.5 2.6 3.0 2.6 4.2 5.5 6.3 11.7 14.2 10.9 8.7 9.3 8.8 7.3 11.0 13.5 9.4 7.5 6.7 5.7 5.2 5.6 6.2 5.9 6.3 6.7 6.4 7.3 7.3 6.6 8.4 9.4 9.4 7.9 7.9 8.0
7.6 6.9 9.7 8.5 6.7 8.4 6.6 6.5 7.4 4.1 5.8 5.1 10.2 14.5 13.8 13.0 7.7 5.3 5.6 5.2 8.1 12.3 10.9 6.3 5.6 6.2 5.8 6.3 6.6 7.4 7.4 6.8 6.5 6.3 5.8 6.0 6.3 5.6 6.3 6.7 7.2 6.6 5.6 5.5
5.4 9.1 8.8 8.5 7.3 8.8 8.6 7.2 5.7 3.8 5.3 12.1 12.1 8.5 7.5 6.8 6.7 7.3 9.2 13.7 15.7 9.6 8.5 8.2 6.6 6.7 7.8 7.8 8.0 8.2 7.9 6.9 6.5 6.1 5.8 6.0 5.9 4.4 2.9 4.0 5.8 4.4 4.5 4.1